[[{"header":{"parameterUnit":"m.s-1","parameterCategory":2,"la1":30.2992,"la2":30.254,"lo1":-89.0895,"lo2":-89.0443,"dy":0.0025,"dx":0.0025,"nx":19,"ny":19,"refTime":"2026-04-11T09:00:00:Z","depth":"0","parameterNumber":2,"parameterNumberName":"U-component_of_CURRENTS"},"data":[0,0,0,0.3035,0.3042,0.3308,0.3309,0.3579,0.3582,0,0,0,0,0,0,0,0,0,0,0,0.2901,0.2903,0.3035,0.3043,0.3308,0.3309,0.3579,0.3582,0,0,0,0,0,0,0,0,0,0,0,0.2901,0.2903,0.2904,0.3044,0.3308,0.3309,0.3578,0.3388,0,0,0,0,0,0,0,0,0,0,0.3136,0.3046,0.2902,0.2905,0.3046,0.3308,0.3309,0.338,0.34,0.3447,0,0.3484,0,0.3571,0.3601,0.3602,0,0,0,0.3015,0.3028,0.3101,0.2905,0.3048,0.3308,0.3181,0.3391,0.3415,0.3474,0.3489,0.3501,0.3576,0.3603,0.3604,0.3845,0.3846,0,0,0.3001,0.2954,0.3084,0.3115,0.3114,0.3172,0.3189,0.3406,0.3427,0.349,0.3509,0.358,0.3605,0.3607,0.3845,0.3846,0,0,0,0.2977,0.2943,0.3011,0.3101,0.3174,0.3181,0.32,0.3416,0.3439,0.3513,0.3584,0.3606,0.361,0.3844,0.3845,0.3815,0,0,0,0.2967,0.2933,0.3004,0.2979,0.317,0.3316,0.3205,0.3422,0.3452,0.3582,0.3606,0.3612,0.3844,0.3845,0.3815,0.3822,0,0,0,0.289,0.2926,0.2954,0.2976,0.3109,0.3314,0.3349,0.343,0.3497,0.3602,0.3613,0.3843,0.3845,0.3815,0.3822,0.385,0,0,0,0.2836,0.2868,0.2952,0.3042,0.3107,0.3283,0.3349,0.3481,0.3567,0.3608,0.3844,0.3845,0.3814,0.3821,0.3849,0.3723,0.3717,0,0,0.2838,0.2868,0.2928,0.3011,0.3156,0.3245,0.3406,0.3534,0.3601,0.3762,0.3769,0.3815,0.3822,0.385,0.3794,0.3785,0,0,0,0.2906,0.2922,0.299,0.3108,0.3261,0.3389,0.3528,0.359,0.3719,0.3669,0.3849,0.3855,0.3873,0.3796,0.379,0.3661,0.3851,0.3851,0.3851,0.2873,0.2958,0.3029,0.3145,0.3273,0.3491,0.3588,0.37,0.3757,0.38,0.3854,0.3892,0.3809,0.3803,0.3672,0.3872,0.3872,0.3872,0.3872,0.2856,0.2894,0.3009,0.3074,0.3258,0.3402,0.3654,0.3718,0.3869,0.3879,0.3896,0.3798,0.3794,0.3657,0.3871,0.3871,0.3871,0.3871,0.3871,0.281,0.282,0.2852,0.2954,0.311,0.3344,0.3523,0.3716,0.384,0.3888,0.3826,0.3825,0.3685,0.3895,0.3896,0.3896,0.3896,0.3896,0.3896,0.2744,0.2766,0.2755,0.2845,0.2915,0.3116,0.3454,0.3586,0.3745,0.3812,0.3811,0.3678,0.39,0.3877,0.3898,0.3898,0.3898,0.3897,0.3897,0.2712,0.2697,0.2672,0.2687,0.279,0.2873,0.319,0.3428,0.358,0.362,0.3556,0.3775,0.3782,0.3785,0.3761,0.3752,0.3752,0.3752,0.3752,0.2703,0.269,0.2634,0.2605,0.263,0.277,0.2833,0.3067,0.3296,0.3334,0.3426,0.3349,0.3361,0.3341,0.3354,0.3321,0.32,0.32,0.3199,0.2737,0.2705,0.2653,0.2562,0.2545,0.2607,0.2609,0.2675,0.2966,0.3169,0.3273,0.3297,0.318,0.3209,0.3176,0.3205,0.3152,0,0]},{"header":{"parameterUnit":"m.s-1","parameterCategory":2,"la1":30.2992,"la2":30.254,"lo1":-89.0895,"lo2":-89.0443,"dy":0.0025,"dx":0.0025,"nx":19,"ny":19,"refTime":"2026-04-11T09:00:00:Z","depth":"0","parameterNumber":3,"parameterNumberName":"V-component_of_CURRENTS"},"data":[0,0,0,0.034,0.0339,0.0258,0.0257,0.002,0.0018,0,0,0,0,0,0,0,0,0,0,0,0.0366,0.0366,0.034,0.0339,0.0258,0.0257,0.0021,0.0018,0,0,0,0,0,0,0,0,0,0,0,0.0366,0.0366,0.0366,0.0338,0.0258,0.0257,0.0021,0.011,0,0,0,0,0,0,0,0,0,0,0.0202,0.0252,0.0366,0.0366,0.0338,0.0258,0.0257,0.0115,0.0104,0.0027,0,0.0033,0,0.0027,0.0002,0.0001,0,0,0,0.0314,0.0261,0.0247,0.0366,0.0338,0.0258,0.0287,0.011,0.0097,0.0012,0.003,0.0022,0.0024,0.0,-0.0001,-0.0111,-0.011,0,0,0.0319,0.0333,0.0257,0.024,0.0337,0.029,0.0285,0.0103,0.0091,0.0029,0.0017,0.002,-0.0002,-0.0003,-0.0111,-0.011,0,0,0,0.0348,0.0336,0.0329,0.0249,0.0249,0.0288,0.0283,0.0098,0.0099,0.0014,0.0017,-0.0003,-0.0006,-0.0112,-0.0111,0.0053,0,0,0,0.0349,0.0355,0.0331,0.0336,0.0254,0.019,0.0282,0.0112,0.0092,0.0018,-0.0003,-0.0008,-0.0113,-0.0111,0.0047,0.0121,0,0,0,0.0366,0.0356,0.0356,0.0338,0.0315,0.0194,0.0183,0.0108,0.0093,0.0001,-0.0009,-0.0113,-0.0112,0.0042,0.0111,0.02,0,0,0,0.0369,0.0393,0.0357,0.0379,0.0317,0.03,0.0185,0.0143,0.0078,-0.0004,-0.0113,-0.0111,0.004,0.0105,0.0194,0.0346,0.0387,0,0,0.0406,0.0397,0.0413,0.038,0.0402,0.0309,0.031,0.0175,0.0071,-0.0069,-0.0071,0.0049,0.011,0.0199,0.0436,0.0476,0,0,0,0.043,0.0449,0.0446,0.045,0.0416,0.0394,0.0273,0.0224,0.0131,0.0044,0.0035,0.0068,0.0119,0.0197,0.0228,0.0123,-0.0104,-0.0104,-0.0104,0.0467,0.0478,0.052,0.0524,0.0505,0.0443,0.0421,0.0327,0.0202,0.0203,0.0192,0.0357,0.0442,0.0466,0.0356,0.0178,0.0178,0.0179,0.0179,0.0551,0.0588,0.0596,0.0649,0.0621,0.0613,0.0537,0.0484,0.0444,0.0323,0.0365,0.0353,0.0511,0.038,0.0189,0.0188,0.0186,0.0185,0.0184,0.0589,0.0616,0.0661,0.0743,0.0784,0.0744,0.0827,0.0724,0.0606,0.0638,0.0691,0.0689,0.0582,0.0657,0.0658,0.0659,0.0659,0.066,0.066,0.061,0.0661,0.0763,0.0846,0.0912,0.0995,0.0993,0.1007,0.0971,0.0884,0.0884,0.064,0.0502,0.0492,0.0672,0.067,0.0668,0.0667,0.0666,0.0675,0.0708,0.0865,0.0959,0.1136,0.1297,0.1308,0.1398,0.136,0.1383,0.104,0.1008,0.0967,0.0941,0.0941,0.1226,0.1226,0.1226,0.1226,0.0713,0.0741,0.0966,0.1133,0.1313,0.1436,0.1697,0.1738,0.1513,0.1365,0.1207,0.1117,0.1099,0.1056,0.1028,0.1023,0.1322,0.1322,0.1322,0.0774,0.0842,0.1006,0.118,0.1387,0.1603,0.1866,0.1984,0.1619,0.1304,0.1034,0.1031,0.0864,0.0844,0.0739,0.0707,0.0685,0,0]}],[{"header":{"parameterUnit":"m.s-1","parameterCategory":2,"la1":30.2992,"la2":30.254,"lo1":-89.0895,"lo2":-89.0443,"dy":0.0025,"dx":0.0025,"nx":19,"ny":19,"refTime":"2026-04-11T09:00:00:Z","depth":"2","parameterNumber":2,"parameterNumberName":"U-component_of_CURRENTS"},"data":[0,0,0,0.251,0.2511,0.2572,0.2572,0.2697,0.2699,0,0,0,0,0,0,0,0,0,0,0,0.2489,0.249,0.251,0.2511,0.2572,0.2572,0.2697,0.2699,0,0,0,0,0,0,0,0,0,0,0,0.2489,0.249,0.249,0.2512,0.2572,0.2572,0.2697,0.2638,0,0,0,0,0,0,0,0,0,0,0.2573,0.2549,0.2489,0.249,0.2512,0.2572,0.2572,0.2635,0.2642,0.2685,0,0.2698,0,0.2705,0.2708,0.2709,0,0,0,0.2508,0.2543,0.256,0.249,0.2513,0.2572,0.2544,0.2639,0.2647,0.2694,0.2699,0.2704,0.2707,0.2709,0.271,0.287,0.2871,0,0,0.2505,0.2501,0.2555,0.2566,0.2535,0.2542,0.2545,0.2643,0.2655,0.27,0.2707,0.2709,0.271,0.2711,0.2869,0.287,0,0,0,0.2497,0.2498,0.2512,0.2561,0.257,0.2543,0.2548,0.265,0.2656,0.2708,0.2711,0.2711,0.2713,0.2869,0.287,0.2901,0,0,0,0.2495,0.2494,0.2511,0.2509,0.2568,0.2605,0.2553,0.2648,0.266,0.271,0.2711,0.2714,0.2868,0.2869,0.2898,0.2896,0,0,0,0.2485,0.2493,0.2502,0.2509,0.2536,0.2603,0.2613,0.265,0.2662,0.2709,0.2715,0.2867,0.2869,0.2896,0.2893,0.2943,0,0,0,0.2476,0.2485,0.2502,0.2523,0.2536,0.26,0.2613,0.2675,0.2718,0.2712,0.2868,0.287,0.2896,0.2891,0.2941,0.2782,0.278,0,0,0.2476,0.2485,0.2498,0.2514,0.2566,0.2591,0.2662,0.2725,0.2756,0.2837,0.2841,0.2899,0.2893,0.2943,0.2872,0.2867,0,0,0,0.2491,0.2493,0.2521,0.2549,0.2607,0.267,0.272,0.2765,0.2851,0.2789,0.2922,0.2917,0.2948,0.2848,0.2845,0.2877,0.2877,0.2877,0.2876,0.2452,0.2483,0.2513,0.2562,0.2625,0.2728,0.2796,0.2865,0.289,0.294,0.2961,0.3041,0.2936,0.2931,0.299,0.299,0.299,0.299,0.299,0.243,0.2436,0.2502,0.2541,0.2635,0.2708,0.2865,0.2912,0.3024,0.3013,0.3042,0.2907,0.2929,0.2993,0.2993,0.2992,0.2992,0.2992,0.2991,0.2386,0.2394,0.2423,0.2487,0.2578,0.2708,0.2823,0.2952,0.3047,0.3092,0.3001,0.2998,0.3049,0.312,0.312,0.312,0.312,0.3121,0.3121,0.2325,0.2355,0.2368,0.2442,0.2484,0.2607,0.2801,0.2882,0.2981,0.3017,0.3016,0.3085,0.308,0.3057,0.3124,0.3124,0.3123,0.3123,0.3123,0.2271,0.2287,0.2301,0.2326,0.2406,0.2431,0.2633,0.2741,0.2849,0.286,0.298,0.2982,0.2957,0.2957,0.2931,0.2962,0.2962,0.2962,0.2962,0.2227,0.2239,0.224,0.2251,0.2284,0.2355,0.2337,0.2432,0.2622,0.2679,0.2692,0.2608,0.262,0.2572,0.2581,0.2546,0.2477,0.2476,0.2476,0.22,0.2209,0.2185,0.2194,0.2213,0.2225,0.2143,0.2059,0.2177,0.2458,0.2623,0.2926,0.2832,0.284,0.2789,0.2795,0.2748,0,0]},{"header":{"parameterUnit":"m.s-1","parameterCategory":2,"la1":30.2992,"la2":30.254,"lo1":-89.0895,"lo2":-89.0443,"dy":0.0025,"dx":0.0025,"nx":19,"ny":19,"refTime":"2026-04-11T09:00:00:Z","depth":"2","parameterNumber":3,"parameterNumberName":"V-component_of_CURRENTS"},"data":[0,0,0,0.0387,0.0388,0.0365,0.0365,0.029,0.0289,0,0,0,0,0,0,0,0,0,0,0,0.0389,0.0389,0.0387,0.0388,0.0366,0.0365,0.029,0.0289,0,0,0,0,0,0,0,0,0,0,0,0.0389,0.0389,0.039,0.0388,0.0366,0.0365,0.029,0.0313,0,0,0,0,0,0,0,0,0,0,0.0338,0.0353,0.0389,0.039,0.0388,0.0366,0.0365,0.0315,0.0312,0.0293,0,0.0301,0,0.0304,0.0285,0.0285,0,0,0,0.0367,0.0356,0.0356,0.039,0.0388,0.0366,0.037,0.0313,0.031,0.0289,0.03,0.0298,0.0303,0.0284,0.0284,0.0288,0.0288,0,0,0.0368,0.0374,0.0359,0.0355,0.0396,0.037,0.0369,0.0312,0.0309,0.03,0.0296,0.0302,0.0284,0.0283,0.0287,0.0288,0,0,0,0.0386,0.0375,0.0377,0.0357,0.0363,0.037,0.0369,0.0311,0.0315,0.0295,0.0301,0.0284,0.0283,0.0287,0.0288,0.0382,0,0,0,0.0385,0.0387,0.0378,0.0379,0.0365,0.0344,0.037,0.0318,0.0312,0.0301,0.0284,0.0282,0.0286,0.0287,0.0379,0.0435,0,0,0,0.0388,0.0387,0.039,0.038,0.0381,0.0345,0.0344,0.0317,0.0316,0.0284,0.0282,0.0286,0.0287,0.0375,0.0428,0.0473,0,0,0,0.0384,0.041,0.039,0.0421,0.0382,0.0401,0.0345,0.0336,0.0314,0.0283,0.0286,0.0288,0.0374,0.0424,0.0469,0.0508,0.0529,0,0,0.0419,0.0414,0.0435,0.0417,0.0461,0.0401,0.0437,0.0377,0.0326,0.0297,0.0297,0.038,0.0428,0.0472,0.0578,0.0598,0,0,0,0.0447,0.0468,0.0474,0.0496,0.0492,0.0501,0.0442,0.0421,0.0392,0.0324,0.0378,0.0406,0.043,0.0445,0.0461,0.0293,0.0293,0.0293,0.0293,0.0486,0.0503,0.0552,0.0572,0.0581,0.0564,0.0561,0.0521,0.0454,0.0458,0.0481,0.058,0.0597,0.0609,0.047,0.0471,0.0471,0.0471,0.0472,0.0563,0.0601,0.0625,0.0683,0.0689,0.0714,0.0686,0.0646,0.0637,0.0567,0.0586,0.0543,0.0632,0.0479,0.0478,0.0477,0.0476,0.0475,0.0475,0.0601,0.0626,0.067,0.076,0.0821,0.0821,0.0892,0.083,0.0745,0.0758,0.0747,0.0745,0.064,0.076,0.076,0.0761,0.0761,0.0762,0.0762,0.0619,0.0668,0.0757,0.0843,0.0911,0.0994,0.1008,0.1007,0.0945,0.0866,0.0866,0.0677,0.0667,0.0656,0.0769,0.0768,0.0767,0.0766,0.0766,0.0675,0.0705,0.0836,0.092,0.1084,0.1211,0.1214,0.1216,0.1168,0.1144,0.0916,0.091,0.0883,0.0869,0.0862,0.1022,0.1022,0.1022,0.1022,0.0708,0.0733,0.0917,0.1061,0.1217,0.1314,0.1447,0.1398,0.1234,0.1103,0.11,0.1042,0.1031,0.1006,0.0989,0.0982,0.1173,0.1173,0.1173,0.0759,0.081,0.0945,0.1095,0.1278,0.1432,0.1556,0.1487,0.1224,0.1177,0.1105,0.1036,0.0937,0.0924,0.0869,0.0849,0.083,0,0]}],[{"header":{"parameterUnit":"m.s-1","parameterCategory":2,"la1":30.2992,"la2":30.254,"lo1":-89.0895,"lo2":-89.0443,"dy":0.0025,"dx":0.0025,"nx":19,"ny":19,"refTime":"2026-04-11T09:00:00:Z","depth":"4","parameterNumber":2,"parameterNumberName":"U-component_of_CURRENTS"},"data":[0,0,0,0.1665,0.1664,0.1622,0.1622,0.1595,0.1595,0,0,0,0,0,0,0,0,0,0,0,0.1705,0.1706,0.1665,0.1664,0.1622,0.1622,0.1595,0.1595,0,0,0,0,0,0,0,0,0,0,0,0.1705,0.1706,0.1706,0.1664,0.1622,0.1622,0.1595,0.1617,0,0,0,0,0,0,0,0,0,0,0.1653,0.1681,0.1705,0.1706,0.1664,0.1622,0.1622,0.1618,0.1616,0.1625,0,0.1648,0,0.1616,0.1595,0.1595,0,0,0,0.1652,0.1683,0.168,0.1707,0.1664,0.1623,0.1638,0.1617,0.1614,0.1623,0.1647,0.1645,0.1616,0.1595,0.1595,0.1649,0.1649,0,0,0.1655,0.1681,0.1682,0.168,0.1692,0.1639,0.1637,0.1615,0.1625,0.1647,0.1644,0.1615,0.1595,0.1595,0.1648,0.1649,0,0,0,0.1669,0.1683,0.168,0.1683,0.167,0.1638,0.1635,0.1626,0.1629,0.1643,0.1615,0.1595,0.1595,0.1648,0.1648,0.1745,0,0,0,0.167,0.1691,0.1682,0.1694,0.1671,0.164,0.1647,0.1631,0.1626,0.1615,0.1595,0.1595,0.1647,0.1648,0.1741,0.176,0,0,0,0.17,0.1693,0.1703,0.1696,0.168,0.164,0.1639,0.1628,0.1609,0.1595,0.1595,0.1646,0.1648,0.1737,0.1754,0.1804,0,0,0,0.1706,0.1718,0.1705,0.1714,0.1682,0.1664,0.1639,0.1641,0.1638,0.1595,0.1647,0.1648,0.1736,0.1751,0.1801,0.1566,0,0,0,0.1713,0.172,0.1723,0.1709,0.1689,0.1666,0.1676,0.1678,0.166,0.1652,0.1653,0.1742,0.1754,0.1804,0.1652,0,0,0,0,0.1719,0.1727,0.172,0.1713,0.1696,0.1697,0.1689,0.1709,0.1741,0.1665,0.1744,0.1748,0.1777,0.1629,0.1655,0.1655,0.1655,0.1655,0.1655,0.1706,0.171,0.1715,0.1722,0.1722,0.1734,0.1762,0.1788,0.1779,0.1828,0.183,0.1933,0.1782,0.1843,0.1844,0.1844,0.1845,0.1845,0.1845,0.1692,0.1685,0.1722,0.1744,0.1764,0.1793,0.1837,0.1872,0.1948,0.1916,0.194,0.1744,0.1855,0.1853,0.1852,0.1851,0.185,0.1849,0.1849,0.1647,0.1649,0.1707,0.1753,0.1811,0.1851,0.1903,0.197,0.2016,0.2062,0.1906,0.1991,0.198,0.2095,0.2095,0.2095,0.2096,0.2096,0.2096,0.1566,0.1619,0.1675,0.1756,0.1805,0.187,0.1964,0.1997,0.2065,0.1972,0.2099,0.2016,0.2008,0.1993,0.2101,0.21,0.21,0.2099,0.2099,0.148,0.1538,0.1601,0.1668,0.1772,0.1793,0.1919,0.1917,0.1958,0.193,0.1914,0.1922,0.1859,0.1854,0.1831,0.1896,0.1893,0.189,0,0.1414,0.1447,0.1525,0.1592,0.1631,0.1724,0.1689,0.1749,0.1802,0.174,0.198,0.1962,0.1965,0.1892,0.1884,0.1855,0,0,0,0.1359,0.1399,0.1421,0.1514,0.1549,0.1566,0.1662,0.1623,0.179,0.1753,0.1824,0.1842,0.2016,0.2117,0.2038,0.2028,0.1999,0,0]},{"header":{"parameterUnit":"m.s-1","parameterCategory":2,"la1":30.2992,"la2":30.254,"lo1":-89.0895,"lo2":-89.0443,"dy":0.0025,"dx":0.0025,"nx":19,"ny":19,"refTime":"2026-04-11T09:00:00:Z","depth":"4","parameterNumber":3,"parameterNumberName":"V-component_of_CURRENTS"},"data":[0,0,0,0.0337,0.0338,0.0356,0.0356,0.0364,0.0364,0,0,0,0,0,0,0,0,0,0,0,0.033,0.033,0.0337,0.0338,0.0356,0.0356,0.0364,0.0364,0,0,0,0,0,0,0,0,0,0,0,0.033,0.033,0.0331,0.0338,0.0356,0.0356,0.0364,0.0352,0,0,0,0,0,0,0,0,0,0,0.0335,0.0334,0.033,0.0331,0.0339,0.0356,0.0356,0.0351,0.0352,0.0356,0,0.0367,0,0.0371,0.0366,0.0366,0,0,0,0.0327,0.0333,0.0341,0.0331,0.0339,0.0356,0.0345,0.0352,0.0353,0.0357,0.0367,0.0367,0.0372,0.0366,0.0366,0.0396,0.0396,0,0,0.0326,0.0328,0.034,0.0342,0.0354,0.0344,0.0346,0.0353,0.0357,0.0367,0.0367,0.0372,0.0366,0.0366,0.0396,0.0396,0,0,0,0.0331,0.0328,0.0335,0.0341,0.0349,0.0345,0.0346,0.0357,0.036,0.0368,0.0372,0.0366,0.0366,0.0395,0.0396,0.0453,0,0,0,0.033,0.0331,0.0334,0.0335,0.0349,0.0356,0.035,0.0359,0.0361,0.0372,0.0366,0.0366,0.0395,0.0396,0.0451,0.049,0,0,0,0.0327,0.0331,0.0336,0.0335,0.0348,0.0356,0.0359,0.036,0.0364,0.0366,0.0366,0.0395,0.0396,0.0449,0.0486,0.0493,0,0,0,0.0322,0.0346,0.0337,0.0366,0.0348,0.0378,0.0359,0.0374,0.0378,0.0366,0.0395,0.0396,0.0449,0.0484,0.0491,0.0499,0,0,0,0.035,0.0349,0.0367,0.036,0.0403,0.0374,0.0415,0.0408,0.0384,0.0389,0.039,0.0452,0.0486,0.0493,0.0524,0,0,0,0,0.0375,0.0393,0.0402,0.0427,0.0435,0.0453,0.0441,0.0431,0.043,0.0391,0.0445,0.0464,0.0467,0.0465,0.0398,0.0398,0.0398,0.0398,0.0398,0.0407,0.0422,0.0466,0.0489,0.0504,0.0509,0.0514,0.0499,0.0471,0.0472,0.0505,0.0545,0.0545,0.049,0.0491,0.0491,0.0491,0.0491,0.0492,0.0466,0.0496,0.0523,0.0577,0.059,0.0623,0.0605,0.0583,0.0578,0.0545,0.0544,0.0519,0.0497,0.0496,0.0495,0.0494,0.0494,0.0494,0.0493,0.0492,0.0511,0.0557,0.0638,0.0697,0.0708,0.075,0.0713,0.0644,0.0648,0.0622,0.058,0.058,0.0641,0.0641,0.0641,0.0641,0.0641,0.0641,0.0495,0.0542,0.062,0.0704,0.0767,0.0831,0.0838,0.0818,0.0748,0.0697,0.0666,0.0595,0.059,0.0588,0.0645,0.0644,0.0644,0.0643,0.0643,0.0521,0.0555,0.0665,0.0744,0.0885,0.0927,0.0943,0.0879,0.0849,0.0785,0.0705,0.0701,0.0679,0.0672,0.0672,0.0756,0.0756,0.0756,0,0.0533,0.0558,0.0709,0.0831,0.094,0.0982,0.0976,0.094,0.0828,0.0816,0.0822,0.0735,0.0731,0.0707,0.0701,0.0703,0,0,0,0.0557,0.0601,0.0705,0.0837,0.0964,0.097,0.0973,0.0937,0.0857,0.0819,0.0764,0.0762,0.0727,0.0654,0.061,0.0604,0.0599,0,0]}]]